Location: Ellingshausen
(50.5460°N, 10.4723°E)
Time: 07:00:08
(UTC+00:00)

Meteor 2-10 Rocket - Pass Details

Date: 18 January 2026
Orbit: 733 x 881 km, 81.2° (Epoch: 18 February)

Event Time Altitude Azimuth Distance (km) Brightness Sun altitude
Rises 04:10:56 0° 175° (S) 3,184 6.8 -27.9°
Reaches altitude 10° 04:13:16 10° 170° (S) 2,280 6.0 -27.6°
Maximum altitude 04:18:13 52° 95° (E) 962 4.3 -26.8°
Drops below altitude 10° 04:23:24 10° 21° (NNE) 2,384 6.2 -25.9°
Sets 04:25:53 0° 16° (NNE) 3,343 7.0 -25.6°
